DW1920 Weather Reports


Display with metric or nautical units.
time (UTC)temp
F
wind
direction
speed
MPH
gust
MPH
rain 1hr
in
rain 24hr
in
rain mn
in
humidity
%
barometer
mb
20181020221002 54 221 11.0 15.0 0.00 0.00 0.00 88 998.5
20181020220001 54 221 12.0 16.0 0.00 0.00 0.00 88 998.6
20181020215001 55 214 12.0 15.0 0.00 0.00 0.00 87 998.6
20181020214001 55 218 10.0 15.0 0.00 0.00 0.00 87 998.5
20181020213001 55 219 11.0 14.0 0.00 0.00 0.00 86 998.4
20181020212001 56 219 11.0 17.0 0.00 0.00 0.00 86 998.4
20181020211001 56 224 13.0 17.0 0.00 0.00 0.00 85 998.3
20181020210001 56 222 14.0 18.0 0.00 0.00 0.00 84 998.3
20181020205000 57 225 13.0 19.0 0.00 0.00 0.00 84 998.4
20181020204001 57 222 15.0 19.0 0.00 0.00 0.00 84 998.3
20181020203001 57 225 15.0 20.0 0.00 0.00 0.00 83 998.3
20181020202001 57 222 14.0 18.0 0.00 0.00 0.00 83 998.5
20181020201001 58 221 14.0 18.0 0.00 0.00 0.00 83 998.7
20181020200001 58 224 14.0 18.0 0.00 0.00 0.00 83 998.5
20181020195001 58 224 13.0 19.0 0.00 0.00 0.00 83 998.5
20181020194001 58 226 13.0 17.0 0.00 0.00 0.00 83 998.5
20181020193001 58 225 12.0 18.0 0.00 0.00 0.00 83 998.6
20181020192001 58 225 13.0 17.0 0.00 0.00 0.00 83 998.7
20181020191001 58 220 12.0 17.0 0.00 0.00 0.00 83 998.7
20181020190001 58 218 12.0 17.0 0.00 0.00 0.00 83 998.8
20181020185001 58 225 14.0 18.0 0.00 0.00 0.00 84 998.9
20181020184001 58 223 15.0 19.0 0.00 0.00 0.00 83 999.0
20181020183001 58 226 14.0 21.0 0.00 0.00 0.00 83 999.1
20181020182001 58 219 14.0 20.0 0.00 0.00 0.00 84 999.1
20181020181001 58 226 14.0 23.0 0.00 0.00 0.00 84 999.2
20181020180001 57 231 13.0 19.0 0.00 0.00 0.00 84 999.2
20181020175001 57 241 9.0 16.0 0.00 0.00 0.00 84 999.4
20181020174000 57 234 11.0 19.0 0.00 0.00 0.00 85 999.4
20181020173001 56 237 11.0 23.0 0.00 0.00 0.00 84 999.5
20181020172001 57 235 13.0 23.0 0.00 0.00 0.00 84 999.6
20181020171002 57 228 15.0 24.0 0.00 0.00 0.00 83 999.6
20181020170001 57 233 16.0 26.0 0.00 0.00 0.00 83 999.6
20181020165001 57 227 18.0 26.0 0.00 0.00 0.00 83 999.7
20181020164002 57 229 16.0 24.0 0.00 0.00 0.00 83 999.9
20181020163001 57 233 14.0 24.0 0.00 0.00 0.00 83 1000.0
20181020162001 57 233 14.0 27.0 0.00 0.00 0.00 84 1000.1
20181020161001 57 227 20.0 27.0 0.00 0.00 0.00 83 1000.3
20181020160002 57 223 21.0 27.0 0.00 0.00 0.00 84 1000.5
20181020155001 57 226 16.0 29.0 0.00 0.00 0.00 82 1000.6
20181020154001 57 235 14.0 27.0 0.00 0.00 0.00 83 1000.6
20181020153001 57 237 15.0 26.0 0.00 0.00 0.00 83 1000.7
20181020152001 57 236 15.0 29.0 0.00 0.00 0.00 83 1000.7
20181020151001 57 236 16.0 26.0 0.00 0.00 0.00 83 1000.7
20181020150001 57 228 19.0 28.0 0.00 0.00 0.00 83 1000.5
20181020145001 56 227 20.0 33.0 0.00 0.00 0.00 82 1000.7
20181020144001 56 230 20.0 31.0 0.00 0.00 0.00 83 1000.8
20181020143001 56 222 24.0 33.0 0.00 0.00 0.00 82 1000.7
20181020142001 57 230 16.0 27.0 0.00 0.00 0.00 81 1001.2
20181020141001 57 239 14.0 32.0 0.00 0.00 0.00 81 1001.3
20181020140001 56 231 17.0 28.0 0.00 0.00 0.00 83 1001.3
20181020135001 56 235 19.0 32.0 0.00 0.00 0.00 83 1001.6
20181020134001 56 231 22.0 33.0 0.00 0.00 0.00 83 1001.2
20181020133002 56 224 22.0 36.0 0.00 0.00 0.00 84 1001.3
20181020132002 56 224 22.0 36.0 0.00 0.00 0.00 84 1001.4
20181020131001 56 217 24.0 33.0 0.00 0.00 0.00 84 1001.6
20181020130001 56 216 23.0 31.0 0.00 0.00 0.00 85 1001.6
20181020125001 56 218 23.0 30.0 0.00 0.00 0.00 85 1001.9
20181020124001 56 219 20.0 29.0 0.00 0.00 0.00 85 1001.9
20181020123001 56 212 21.0 31.0 0.00 0.00 0.00 85 1001.7
20181020122001 56 210 25.0 31.0 0.00 0.00 0.00 85 1001.6
20181020121001 56 216 19.0 29.0 0.00 0.00 0.00 85 1001.9
20181020120001 56 219 23.0 31.0 0.00 0.00 0.00 84 1001.8
20181020115002 55 211 25.0 33.0 0.00 0.00 0.00 85 1001.9
20181020114002 55 207 25.0 31.0 0.00 0.00 0.00 85 1001.8
20181020113004 55 206 26.0 32.0 0.00 0.00 0.00 84 1001.8
20181020111001 55 205 28.0 34.0 0.00 0.00 0.00 84 1002.0
20181020110001 55 203 27.0 34.0 0.00 0.00 0.00 84 1002.2
20181020105000 55 208 27.0 33.0 0.00 0.00 0.00 84 1002.6
20181020104002 55 210 23.0 33.0 0.00 0.00 0.00 84 1002.4
20181020103004 55 216 24.0 33.0 0.00 0.00 0.00 84 1002.8
20181020102000 55 215 25.0 33.0 0.00 0.00 0.00 84 1003.0
20181020101001 55 217 24.0 33.0 0.00 0.00 0.00 85 1003.3
20181020100001 55 216 22.0 31.0 0.00 0.00 0.00 85 1003.4
20181020095001 55 219 23.0 32.0 0.00 0.00 0.00 85 1003.7
20181020094001 55 225 22.0 31.0 0.00 0.00 0.00 85 1003.7
20181020093002 55 219 21.0 31.0 0.00 0.00 0.00 85 1004.0
20181020092001 54 222 23.0 30.0 0.00 0.00 0.00 85 1004.1
20181020091001 54 212 20.0 27.0 0.00 0.00 0.00 85 1004.1
20181020090001 54 227 20.0 32.0 0.00 0.00 0.00 85 1004.3
20181020085001 54 228 20.0 31.0 0.00 0.00 0.00 85 1004.2
20181020084002 54 227 21.0 30.0 0.00 0.00 0.00 85 1004.4
20181020083001 54 223 21.0 33.0 0.00 0.00 0.00 85 1004.6
20181020082001 54 220 26.0 35.0 0.00 0.00 0.00 85 1004.7
20181020081001 54 220 23.0 31.0 0.00 0.00 0.00 85 1004.6
20181020080001 54 222 19.0 28.0 0.00 0.00 0.00 85 1005.0
20181020075001 54 222 21.0 27.0 0.00 0.00 0.00 84 1004.9
20181020074002 54 219 22.0 31.0 0.00 0.00 0.00 83 1004.9
20181020073000 54 217 23.0 32.0 0.00 0.00 0.00 82 1004.7
20181020072001 54 219 24.0 32.0 0.00 0.00 0.00 82 1005.1
20181020071002 54 216 24.0 31.0 0.00 0.00 0.00 81 1005.1
20181020070002 54 223 28.0 34.0 0.00 0.00 0.00 80 1005.4
20181020065001 54 221 24.0 35.0 0.00 0.00 0.00 81 1005.4
20181020064001 54 218 26.0 34.0 0.00 0.00 0.00 80 1005.7
20181020063002 54 221 23.0 38.0 0.00 0.00 0.00 81 1005.7
20181020062001 54 215 23.0 33.0 0.00 0.00 0.00 81 1005.8
20181020061001 54 213 25.0 35.0 0.00 0.00 0.00 80 1005.8
20181020060002 54 210 25.0 37.0 0.00 0.00 0.00 79 1006.1
20181020055001 54 218 24.0 39.0 0.00 0.00 0.00 78 1006.0
20181020054001 54 212 24.0 31.0 0.00 0.00 0.00 79 1006.6
20181020053001 54 222 22.0 35.0 0.00 0.00 0.00 79 1006.9
20181020052001 54 227 21.0 33.0 0.00 0.00 0.00 80 1007.6
20181020051002 54 226 21.0 28.0 0.00 0.00 0.00 80 1007.6
20181020050001 54 230 17.0 30.0 0.00 0.00 0.00 79 1007.9
20181020045001 54 227 21.0 29.0 0.00 0.00 0.00 78 1007.7
20181020044001 54 227 18.0 29.0 0.00 0.00 0.00 78 1008.2
20181020043001 54 231 15.0 31.0 0.00 0.00 0.00 79 1008.1
20181020042001 54 228 18.0 29.0 0.00 0.00 0.00 79 1008.1
20181020041001 54 228 14.0 27.0 0.00 0.00 0.00 79 1008.2
20181020040001 54 224 15.0 25.0 0.00 0.00 0.00 79 1008.2
20181020035001 54 227 15.0 24.0 0.00 0.00 0.00 79 1008.3
20181020034001 54 229 14.0 24.0 0.00 0.00 0.00 79 1008.7
20181020033001 54 229 17.0 25.0 0.00 0.00 0.00 80 1009.0
20181020032002 54 229 15.0 23.0 0.00 0.00 0.00 80 1009.5
20181020031001 54 232 16.0 28.0 0.00 0.00 0.00 80 1009.7
20181020030002 54 228 18.0 26.0 0.00 0.00 0.00 81 1009.5
20181020025001 54 228 20.0 27.0 0.00 0.00 0.00 81 1009.2
20181020024001 54 237 16.0 23.0 0.00 0.00 0.00 81 1009.8
20181020023002 55 232 16.0 26.0 0.00 0.00 0.00 81 1009.8
20181020022001 55 229 16.0 28.0 0.00 0.00 0.00 81 1009.9
20181020021001 55 235 16.0 25.0 0.00 0.00 0.00 81 1010.1
20181020020002 54 231 15.0 25.0 0.00 0.00 0.00 81 1010.2
20181020015001 55 219 16.0 23.0 0.00 0.00 0.00 82 1010.4
20181020014001 55 220 17.0 24.0 0.00 0.00 0.00 82 1010.4
20181020013005 54 214 20.0 25.0 0.00 0.00 0.00 83 1010.1
20181020012002 54 206 20.0 23.0 0.00 0.00 0.00 83 1010.2
20181020011001 54 209 18.0 24.0 0.00 0.00 0.00 83 1010.5
20181020010001 54 205 20.0 24.0 0.00 0.00 0.00 84 1010.5
20181020005002 54 204 20.0 24.0 0.00 0.00 0.00 83 1010.7
20181020004001 54 203 19.0 23.0 0.00 0.00 0.00 84 1011.0
20181020003001 54 200 16.0 18.0 0.00 0.00 0.00 84 1011.2
20181020002001 54 203 15.0 20.0 0.00 0.00 0.00 83 1011.6
20181020001001 54 206 17.0 20.0 0.00 0.00 0.00 84 1012.0
20181020000001 54 203 16.0 18.0 0.00 0.00 0.00 84 1012.1
20181019235001 54 203 16.0 19.0 0.00 0.00 0.00 83 1012.3
20181019234001 54 206 16.0 20.0 0.00 0.00 0.00 82 1012.5
20181019233002 53 211 16.0 20.0 0.00 0.00 0.00 82 1012.6
20181019232001 53 213 14.0 20.0 0.00 0.00 0.00 81 1012.7
20181019231001 53 209 16.0 23.0 0.00 0.00 0.00 80 1012.8
20181019230001 53 210 18.0 25.0 0.00 0.00 0.00 80 1012.9
20181019225001 53 215 18.0 25.0 0.00 0.00 0.00 79 1013.0
20181019224001 53 211 16.0 25.0 0.00 0.00 0.00 79 1013.2
20181019223001 53 214 17.0 23.0 0.00 0.00 0.00 79 1013.2
20181019222001 53 213 17.0 23.0 0.00 0.00 0.00 79 1013.2